Location: Ferintosh
(52.7647°N, 112.9692°W)
Time: 14:31:11
(UTC+00:00)

Transit 2A Rocket - Pass Details

Date: 20 May 2024
Orbit: 583 x 910 km, 66.7° (Epoch: 22 June)

Event Time Altitude Azimuth Distance (km) Brightness Sun altitude
Rises 13:17:11 0° 238° (WSW) 3,027 7.5 14.3°
Reaches altitude 10° 13:19:29 10° 244° (WSW) 2,164 6.8 14.6°
Maximum altitude 13:24:17 49° 320° (NW) 964 5.6 15.3°
Drops below altitude 10° 13:29:36 10° 35° (NE) 2,391 8.4 16.1°
Sets 13:32:14 0° 41° (NE) 3,377 9.2 16.5°
